Location: Bastrop State Park
(30.1090°N, 97.2819°W)
Time: 16:42:23
(UTC-06:00)

ISS - Visible Passes

Search period start: 01 February 2015 00:00
Search period end: 11 February 2015 00:00
Orbit: 400 x 408 km, 51.6° (Epoch: 01 February)

Date Brightness Start Highest point End Pass type
(mag) Time Alt. Az. Time Alt. Az. Time Alt. Az.
01 Feb -1.1 20:01:25 10° SW 20:02:43 22° SW 20:02:43 22° SW visible
02 Feb -2.6 19:09:24 10° SSW 19:12:23 36° SE 19:13:11 30° E visible
03 Feb -1.6 19:53:33 10° WSW 19:56:15 29° NW 19:56:15 29° NW visible
04 Feb -3.1 19:00:47 10° SW 19:04:00 66° NW 19:06:31 16° NE visible
05 Feb -0.6 19:46:43 10° WNW 19:48:20 13° NW 19:49:19 12° NNW visible
06 Feb -1.3 18:52:59 10° W 18:55:41 23° NW 18:58:21 10° NNE visible
08 Feb -0.4 18:46:36 10° NW 18:47:26 11° NNW 18:48:09 10° NNW visible
